Regional Weather Roundup
Issued by NWS

Home | Current Version | Previous Version | Graphics & Text | Print | Product List | Glossary On
Versions: 1 2 3 4 5 6 7 8 9 10 11 12 13 14 15 16 17 18 19 20 21 22 23 24 25 26 27
000
ASUS45 KTFX 201310
RWRMT
MONTANA REGIONAL WEATHER ROUNDUP
NATIONAL WEATHER SERVICE GREAT FALLS MT
600 AM MST SAT JAN 20 2018

NOTE: "FAIR" INDICATES FEW OR NO CLOUDS BELOW 12000 FEET WITH NO
SIGNIFICANT WEATHER AND/OR OBSTRUCTIONS TO VISIBILITY.

MTZ001>007-043-201400-
WEST OF THE DIVIDE

CITY           SKY/WX    TMP DP  RH WIND       PRES   REMARKS
KALISPELL      CLOUDY    32  28  85 S5        29.92S
MISSOULA       CLOUDY    30  23  75 E8        29.97R WCI  22
BUTTE          CLOUDY    10   5  80 CALM      29.92R
MULLAN PASS    CLOUDY    22  21  96 SW8       29.84S WCI  12
ANACONDA         N/A     19  12  73 MISG      29.93R
DEER LODGE       N/A     21  18  86 CALM      29.94S
EUREKA           N/A     36  27  69 MISG      29.89S
HAMILTON         N/A     30  21  69 CALM      29.97
PLAINS           N/A     29  24  81 CALM      29.96S
RONAN            N/A     32  27  80 S6        29.96R WCI  26
$$

MTZ008-052>055-201400-
SOUTHWEST MONTANA

CITY           SKY/WX    TMP DP  RH WIND       PRES   REMARKS
BOZEMAN        MOCLDY     9   6  88 CALM      29.97R
DILLON         FAIR       8   6  92 S9        29.92S WCI  -5
ENNIS          CLOUDY    21  14  73 CALM      29.96S
W YELLOWSTONE  CLOUDY    16  14  93 N3        29.87R
THREE FORKS      N/A     22  19  88 CALM      29.95R
TWIN BRIDGES     N/A     15   7  71 CALM      29.94
$$

MTZ009-010-012-014-046-048-049-054-201400-
EAST SLOPES AND CENTRAL MONTANA

CITY           SKY/WX    TMP DP  RH WIND       PRES   REMARKS
CUT BANK       FAIR      28  18  66 W17       29.76R WCI  16
GREAT FALLS    FAIR      27  16  63 SW15      29.83F WCI  15
MALMSTROM AFB  FAIR      25  19  77 SW14      29.85S WCI  13
HELENA         CLOUDY    26  17  68 W6        29.91S WCI  19
AUGUSTA        FAIR      27  16  63 W16       29.80F WCI  14
BOWMANS CRNR   FAIR      22  17  79 SW13      29.82F WCI  10
CHOTEAU          N/A     28  14  54 W14       29.81S WCI  17
FAIRFIELD      FAIR      28  15  58 SW13      29.81S WCI  17
POWER          FAIR      21  14  75 SW12      29.81  WCI   9
RAYNESFORD     FAIR      29  16  57 SW17      29.84R WCI  17
ULM            FAIR      26  19  72 SW9       29.86S WCI  17
WHITE SULPHUR    N/A     21  10  63 S10       29.87S WCI  10
$$

MTZ011-013-016-021-045-047-050-051-201400-
NORTH CENTRAL MONTANA

CITY           SKY/WX    TMP DP  RH WIND       PRES   REMARKS
HAVRE          FAIR      23  17  78 SW17      29.82S WCI   9
LEWISTOWN      FAIR      21  15  78 SW12      29.83S WCI   9
N BAR RANCH    FAIR      27  10  50 CALM      29.85R
CHINOOK          N/A     21  16  79 W6        29.82S WCI  14
DENTON         FAIR      25  16  68 MISG      29.81S
GEYSER         FAIR      26  15  63 W6        29.84S WCI  19
GRASS RANGE    FAIR      26  17  68 W13       29.81  WCI  15
STANFORD       FAIR      26  15  63 W15       29.83S WCI  14
WINIFRED       FAIR      27  18  67 W12       29.82S WCI  17
$$

MTZ017>020-022>027-061-062-201400-
NORTHEAST MONTANA

CITY           SKY/WX    TMP DP  RH WIND       PRES   REMARKS
GLASGOW        FAIR      19  13  77 W6        29.80R WCI  11
GLENDIVE       FAIR      29  22  75 W14       29.83S WCI  18
JORDAN           N/A     19  14  81 W7        29.83R WCI  10
MALTA          CLEAR     10   9  92 W13       29.82S WCI  -5
SIDNEY         FAIR      29  23  78 SW8       29.81R WCI  21
WOLF POINT     FAIR      18  11  74 SW10      29.82R WCI   6
PLENTYWOOD       N/A     23  18  80 CALM      29.75R
POPLAR           N/A     19  14  79 CALM      29.81R
SCOBEY           N/A     20  10  65 CALM      29.74
$$

MTZ028>42-056>058-201400-
SOUTHCENTRAL AND SOUTHEAST MONTANA

CITY           SKY/WX    TMP DP  RH WIND       PRES   REMARKS
BAKER          MOCLDY    31  29  92 W9        29.84R WCI  23
BILLINGS       FAIR      28  20  71 NW7       29.88R WCI  21
LIVINGSTON     FAIR      23  16  74 W13       29.91R WCI  11
MILES CITY     FAIR      30  26  85 W13       29.86R WCI  20
BIG TIMBER     CLEAR     25  18  74 W31       29.88R WCI   8
EKALAKA          N/A     31  25  78 SW6       29.83  WCI  25
FORSYTH          N/A     30  25  80 SW3       29.87S
HARLOWTON      FAIR      26  16  65 W29       29.84S WCI  10
LAUREL           N/A     32  19  59 NW12G20   29.89R WCI  23
$$

REGIONAL REPORTS...DAKOTAS

CITY           SKY/WX    TMP DP  RH WIND       PRES   REMARKS
WILLISTON      FAIR      26  19  74 SW13      29.78R WCI  15
MINOT          FAIR      32  24  72 SW15      29.73R WCI  22
DICKINSON      FAIR      31  27  85 W9        29.79R WCI  23
BEACH          FAIR      30  27  86 W15       29.85R WCI  19
CROSBY         FAIR      23  19  86 SW7G15    29.74R WCI  15
TIOGA          FAIR      25  23  93 W12       29.75R WCI  14
WATFORD CITY   FAIR      27  25  93 SW7       29.78S WCI  19
BISMARCK       FAIR      34  31  88 W9        29.81R WCI  27
GRAND FORKS    MOCLDY    28  24  85 W3        29.75R
FARGO          FAIR      27  24  89 S6        29.77S WCI  20
BUFFALO SD       N/A     33  30  88 W12       29.78R WCI  24
RAPID CITY     CLOUDY    34  31  88 NW16      29.86R WCI  24
$$

REGIONAL REPORTS...WYOMING/IDAHO/WASHINGTON

CITY           SKY/WX    TMP DP  RH WIND       PRES   REMARKS
GILLETTE       LGT SNOW  30  28  92 NW6       29.86S FOG     WCI  24
SHERIDAN       CLOUDY    27  22  81 CALM      29.87S
BUFFALO WY     CLOUDY    29  21  72 N5        29.86F
CODY           CLOUDY    28  24  85 SE5       29.86R
YELLOWSTONE LA   N/A     16  13  88 CALM      29.84R
IDAHO FALLS    FAIR      27  24  89 S5        29.93S
BOISE          CLOUDY    31  25  78 SE6       30.03S WCI  25
SPOKANE        MOCLDY    33  30  88 S8        29.94S WCI  26
$$

REGIONAL REPORTS...ALBERTA

CITY           SKY/WX    TMP DP  RH WIND       PRES   REMARKS
CALGARY        PTCLDY    30  10  43 CALM      29.66S
CARDSTON         N/A     32  18  55 W7          N/A  WCI  26
EDMONTON       MOCLDY    14  10  85 NE3       29.69R VSB 1/8
FORT MCMURRAY  FLURRIES  18  14  86 NW5       29.72R
HIGH LEVEL     CLOUDY    16  14  93 N9        29.75R WCI   4
LETHBRIDGE     PTCLDY    32  19  59 W20       29.73S WCI  20
LLOYDMINSTER   CLOUDY    23  21  93 W8        29.65R WCI  14
MEDICINE HAT   CLEAR     28  21  74 W10G18    29.74R WCI  19
MILK RIVER       N/A     18  14  86 N8          N/A  WCI   7
PEACE RIVER    FLURRIES  16  12  86 VRB2      29.70S
PINCHER CREEK  CLOUDY    32  21  64 W20G30    29.74S WCI  20
WATERTON GATE    N/A     30  19  64 SW16G32     N/A  WCI  19
$$

REGIONAL REPORTS...SASKATCHEWAN

CITY           SKY/WX    TMP DP  RH WIND       PRES   REMARKS
CORONACH         N/A     21  16  79 W15G21      N/A  WCI   8
CYPRESS HILLS    N/A     27  10  50 W8          N/A  WCI  18
ESTEVAN        PTCLDY    16  12  86 SW10      29.72R WCI   3
MOOSE JAW        N/A     25  19  80 W14         N/A  WCI  13
PRINCE ALBERT  FLURRIES  19  16  86 E6        29.63R WCI  11
REGINA         CLOUDY    21  18  86 W8        29.68R WCI  12
ROCKGLEN         N/A     18  14  86 W13         N/A  WCI   4
SASKATOON      CLOUDY    23  21  93 W8        29.65R WCI  14
SWIFT CURRENT  CLEAR     27  18  69 W17G25    29.68R WCI  14
VAL MARIE        N/A      7   3  85 SW1         N/A
$$




USA.gov is the U.S. government's official web portal to all federal, state and local government web resources and services.